Regional Weather Roundup
Issued by NWS Charleston, SC

Current Version | Previous Version | Text Only | Print | Product List | Glossary Off
Versions: 1 2 3 4 5 6 7 8 9 10 11 12 13 14 15 16 17 18 19 20 21 22 23 24 25 26 27 28 29 30 31 32 33 34 35 36 37 38 39 40 41 42 43 44 45 46 47 48 49 50

000
ASUS42 KCHS 190425
RWRCHS

REGIONAL WEATHER ROUNDUP
NATIONAL WEATHER SERVICE CHARLESTON SC
1200 AM EDT SAT APR 19 2014

NOTE: "FAIR" INDICATES FEW OR NO CLOUDS BELOW 12,000 FEET WITH NO
SIGNIFICANT WEATHER AND/OR OBSTRUCTIONS TO VISIBILITY.

NOT ALL STATIONS ARE QUALITY CONTROLLED BY THE NATIONAL
WEATHER SERVICE. USE DATA WITH CAUTION...ESPECIALLY
DEWPOINT OBSERVATIONS.

SCZ027-030-031-034>040-042>050-190500-
...SOUTH CAROLINA...

CITY           SKY/WX    TMP DP  RH WIND       PRES   REMARKS
N CHARLESTON   HVY RAIN  59  55  87 E15G23    30.02F FOG
WATERFRONT PRK   N/A     61 N/A N/A NE32        N/A
FORT JOHNSON     N/A     57  57 100 E21G30    30.06F
MOUNT PLEASANT HVY RAIN N/A N/A N/A NE7       30.03S VSB 1
JOHNS ISLAND   HVY RAIN  57  57 100 NE22G30   29.99F
PINOPOLIS      NOT AVBL
MONCKS CORNER  RAIN      57  57 100 NE13G18   30.04F
SUMMERVILLE    DRIZZLE   55  55 100 NE7       30.00F
BEAUFORT MCAS  CLOUDY    60  57  89 E7        29.97S
BEAUFORT ARPT  LGT RAIN  61  61 100 NE18      29.96F
HILTON HEAD IS HVY RAIN  61  61 100 NE10G21   29.98R
GEORGETOWN     NOT AVBL
WALTERBORO     DRIZZLE   55 N/A N/A E12G21    29.99F
ORANGEBURG     RAIN      54  51  90 NE14G22   30.03F FOG
BARNWELL       HVY RAIN  54  52  94 NE10      30.05R
AIKEN          RAIN      52  52 100 NE15G23   30.08R
MANNING        CLOUDY    55 N/A N/A NE8       30.06F
KINGSTREE      NOT AVBL
COLUMBIA       RAIN      53  51  93 NE13G22   30.07F FOG
SUMTER         HVY RAIN  52  52 100 NE16G25   30.05F FOG
FLORENCE       LGT RAIN  54  51  90 E21G26    30.10F
MYRTLE BEACH   CLOUDY    55  54  94 NE14G23   30.09F
N MYRTLE BEACH LGT RAIN  55  53  93 NE16G25   30.09F

$$

GAZ063-065-086>088-099>101-113>116-118-119-134-136>141-150-190500-
...GEORGIA...

CITY           SKY/WX    TMP DP  RH WIND       PRES   REMARKS
SAVANNAH ARPT  LGT RAIN  60  58  92 NE8       29.96S
HUNTER AAF     CLOUDY    61  60  96 NE8       29.93F
FORT STEWART   CLOUDY    58  58 100 N5        29.94F
STATESBORO     NOT AVBL
SYLVANIA       RAIN      56  54  91 NE12      29.99F
CLAXTON        CLOUDY   N/A N/A N/A W5        29.98R
THOMSON        CLOUDY    50  50 100 N7        30.12R
AUGUSTA-BUSH   RAIN      52  50  93 N10       30.05S FOG
AUGUSTA-DANIEL HVY RAIN  53  51  93 N9        30.05F FOG
SWAINSBORO     DRIZZLE   52  52 100 NE7       30.01S
VIDALIA        CLOUDY    54  54 100 NE10G16   29.98S
ALMA           CLOUDY    56  53  90 N6        29.95S FOG
WAYCROSS       NOT AVBL
JESUP          CLOUDY    55  55 100 NE7       29.94F
BRUNSWICK      CLOUDY    61  61 100 CALM      29.94S
SAINT SIMONS   LGT RAIN  62  61  96 CALM      29.93S

$$

SCZ027-028-034-036>038-045-046-048>050-GAZ119-141-190500-
...LAKE AND SUPPLEMENTAL COASTAL OBSERVATIONS...

STATION/POSITION TIME  TEMP    WIND        PRES    WAVE   SWELL
                       AIR SEA DIR/SP/G            HT/PER HT/PER/DIR
                 (UTC) (F)     (DEG/KT/KT) (MB)    (FT/S) (FT/S/D)
UPR LAKE MARION  NOT AVBL
WINYAH BAY       0300   58      40/ 24     1018.0S
LAKE MURRAY      0400   52      30/  9/ 14 1018.3F
ACE BASIN NERRS  0400   58      60/  8     1015.0S
FORT PULASKI     0400   62 59   50/ 20/ 26 1014.2F
SAPELO ISLAND    0300   63      70/  4     1014.0S

$$

ANZ835-935-AMZ111-154-330-350-352-354-374-450-454-472-190500-
...C-MAN AND BUOY OBSERVATIONS...

STATION/POSITION TIME  TEMP    WIND        PRES    WAVE   SWELL
                       AIR SEA DIR/SP/G            HT/PER HT/PER/DIR
                 (UTC) (F)     (DEG/KT/KT) (MB)    (FT/S) (FT/S/D)
FOLLY BEACH CMAN 0400   59      50/ 25/ 30 1016.6F
BUOY 41004       NOT AVBL
BUOY 41008       0400   66 65  170/ 10/ 12 1013.4S   6/ 7   7/ 90/ 7
5E ST. MARYS GA  0400      64                N/A     6/ 7   2/ 90/12
FRYING PAN BUOY  0400   59 65   50/ 27/ 33 1017.0F   8/ 7   3/ 80/10
BUOY 41025       NOT AVBL
CAPE LOOKOUT NC  0400   53      20/ 15/ 19 1021.9F
BUOY 41002       NOT AVBL
BUOY 41010       0400   76 76  140/ 21/ 25 1014.4S   8/10   5/ 50/10
BUOY 41012       NOT AVBL
ST AUGUSTINE FL  0400   65     170/  9/ 10 1013.9R
CAPERS NEARSHORE NOT AVBL
FRIPP NEARSHORE  0300   60      70/ 23/ 33   N/A


$$


USA.gov is the U.S. government's official web portal to all federal, state and local government web resources and services.